This is the latest recevied weather packets stored in our database for station/object KE0LFX. If no packets are shown the sender has not sent any weather packets the latest 10 day(s).
| Time | Temp. | Humidity | Pressure | Rain* | Wind** | Luminosity | Snow |
|---|---|---|---|---|---|---|---|
| 1778012122 | 14.44° C | 39% | 1014 hPa | 0 mm | - | 255 W/m² | - |
| 1778011819 | 15° C | 38% | 1014.2 hPa | 0 mm | - | 273 W/m² | - |
| 1778011517 | 14.44° C | 41% | 1014.3 hPa | 0 mm | - | 325 W/m² | - |
| 1778011214 | 13.89° C | 39% | 1014.3 hPa | 0 mm | - | 385 W/m² | - |
| 1778010910 | 13.89° C | 39% | 1014.5 hPa | 0 mm | - | 233 W/m² | - |
| 1778010607 | 14.44° C | 39% | 1014.5 hPa | 0 mm | - | 231 W/m² | - |
| 1778010305 | 13.89° C | 39% | 1014.4 hPa | 0 mm | - | 224 W/m² | - |
| 1778010004 | 13.89° C | 39% | 1014.3 hPa | 0 mm | - | 225 W/m² | - |
| 1778009702 | 14.44° C | 39% | 1014.6 hPa | 0 mm | - | 269 W/m² | - |
| 1778009399 | 13.89° C | 41% | 1014.6 hPa | 0 mm | - | 275 W/m² | - |
| 1778009098 | 13.89° C | 40% | 1014.5 hPa | 0 mm | - | 280 W/m² | - |
| 1778008795 | 13.89° C | 38% | 1014.6 hPa | 0 mm | - | 277 W/m² | - |
| 1778008494 | 13.89° C | 38% | 1014.8 hPa | 0 mm | - | 299 W/m² | - |
| 1778008190 | 13.89° C | 38% | 1014.8 hPa | 0 mm | - | 302 W/m² | - |
| 1778007885 | 13.33° C | 39% | 1015 hPa | 0 mm | - | 305 W/m² | - |
| 1778007581 | 13.33° C | 40% | 1015.1 hPa | 0 mm | - | 351 W/m² | - |
| 1778007278 | 13.89° C | 39% | 1015 hPa | 0 mm | - | 382 W/m² | - |
| 1778006974 | 13.89° C | 38% | 1015.2 hPa | 0 mm | - | 333 W/m² | - |
| 1778006672 | 13.33° C | 38% | 1015.2 hPa | 0 mm | - | 351 W/m² | - |
| 1778006368 | 13.33° C | 39% | 1015.3 hPa | 0 mm | - | 368 W/m² | - |
| 1778006065 | 13.33° C | 39% | 1015.4 hPa | 0 mm | - | 277 W/m² | - |
| 1778005762 | 13.89° C | 40% | 1015.5 hPa | 0 mm | - | 272 W/m² | - |
| 1778005459 | 13.33° C | 38% | 1015.2 hPa | 0 mm | - | 278 W/m² | - |
| 1778005155 | 13.33° C | 39% | 1015.3 hPa | 0 mm | - | 240 W/m² | - |
| 1778004853 | 13.89° C | 39% | 1015.4 hPa | 0 mm | - | 255 W/m² | - |
* Rain latest hour (hover to see other rain measurements)
** Current wind speed in m/s (hover to see current wind gust speed)